Thermopolis, WY

9:02 PM MST on February 17, 2018 (GMT -0700)
Thermopolis

Weather History for KTBX - August, 2013

Change the Weather History Date:

Friday, August 16, 2013

  Actual Average (KWRL) Record (KWRL)
Temperature  
Mean Temperature 71 °F -  
Max Temperature 82 °F 87 °F 101 °F (1970)
Min Temperature 60 °F 55 °F 41 °F (1968)
Cooling Degree Days 6    
Growing Degree Days 21 (Base 50)    
Moisture  
Dew Point 24 °F    
Average Humidity 19    
Maximum Humidity 34    
Minimum Humidity 7    
Precipitation  
Precipitation 0.00 in - - ()
Sea Level Pressure  
Sea Level Pressure 30.38 in    
Wind  
Wind Speed 15 mph (SE)    
Max Wind Speed 22 mph    
Max Gust Speed 30 mph    
Visibility 10 miles    
Events      
Averages and records for this station are not official NWS values.
T = Trace of Precipitation, MM = Missing Value Source: NWS Daily Summary

Daily Weather History Graph

Daily Weather History Graph

Search for Another Location

Airport or City:

Trip Planner

Search our weather history database for the weather conditions in past years. The results will help you decide how hot, cold, wet, or windy it might be!

Date:

Astronomy

Aug. 16, 2013 Rise Set
Actual Time 6:19 AM MDT 8:14 PM MDT
Civil Twilight 5:48 AM MDT 8:44 PM MDT
Nautical Twilight 5:10 AM MDT 9:22 PM MDT
Astronomical Twilight 4:29 AM MDT 10:03 PM MDT
Moon 4:39 PM MDT (8/16) 1:21 AM MDT (8/16)
Length of Visible Light 14h 56m
Length of Day
13h 54m
Waxing Gibbous, 75% of the Moon is Illuminated
Aug 16
Waxing Gibbous
Aug 20
Full
Aug 28
Last Quarter
Sep 5
New
Sep 12
First Quarter

Hourly Weather History & Observations

Time (MDT) Temp. Dew Point Humidity Pressure Visibility Wind Dir Wind Speed Gust Speed Precip Events Conditions
12:15 AM 68.0 °F 33.8 °F 28% 30.39 in 10.0 mi ESE 19.6 mph 24.2 mph N/A   Clear
12:35 AM 68.0 °F 33.8 °F 28% 30.39 in 10.0 mi ESE 21.9 mph 29.9 mph N/A   Clear
12:55 AM 68.0 °F 33.8 °F 28% 30.39 in 10.0 mi ESE 18.4 mph - N/A   Clear
1:15 AM 66.2 °F 33.8 °F 30% 30.39 in 10.0 mi ESE 18.4 mph - N/A   Clear
1:35 AM 64.4 °F 32.0 °F 30% 30.40 in 10.0 mi ESE 15.0 mph - N/A   Clear
1:55 AM 66.2 °F 32.0 °F 28% 30.40 in 10.0 mi ESE 13.8 mph - N/A   Clear
2:15 AM 64.4 °F 32.0 °F 30% 30.39 in 10.0 mi SE 15.0 mph - N/A   Clear
2:35 AM 64.4 °F 32.0 °F 30% 30.39 in 10.0 mi ESE 18.4 mph - N/A   Clear
2:55 AM 64.4 °F 32.0 °F 30% 30.39 in 10.0 mi ESE 18.4 mph - N/A   Clear
3:15 AM 64.4 °F 32.0 °F 30% 30.39 in 10.0 mi ESE 17.3 mph - N/A   Clear
3:35 AM 66.2 °F 32.0 °F 28% 30.39 in 10.0 mi ESE 17.3 mph - N/A   Clear
3:55 AM 66.2 °F 32.0 °F 28% 30.39 in 10.0 mi ESE 16.1 mph 20.7 mph N/A   Clear
4:15 AM 66.2 °F 32.0 °F 28% 30.39 in 10.0 mi SE 15.0 mph - N/A   Clear
4:35 AM 64.4 °F 32.0 °F 30% 30.39 in 10.0 mi ESE 13.8 mph - N/A   Clear
4:55 AM 64.4 °F 32.0 °F 30% 30.38 in 10.0 mi SE 13.8 mph 20.7 mph N/A   Clear
5:15 AM 62.6 °F 32.0 °F 32% 30.38 in 10.0 mi SE 16.1 mph 23.0 mph N/A   Clear
5:35 AM 62.6 °F 32.0 °F 32% 30.38 in 10.0 mi SE 16.1 mph - N/A   Clear
5:55 AM 62.6 °F 32.0 °F 32% 30.38 in 10.0 mi SE 16.1 mph - N/A   Clear
6:15 AM 60.8 °F 32.0 °F 34% 30.39 in 10.0 mi SE 13.8 mph - N/A   Clear
6:35 AM 60.8 °F 32.0 °F 34% 30.38 in 10.0 mi ESE 16.1 mph - N/A   Clear
6:55 AM 62.6 °F 32.0 °F 32% 30.39 in 10.0 mi SE 11.5 mph - N/A   Clear
7:15 AM 62.6 °F 32.0 °F 32% 30.40 in 10.0 mi SE 12.7 mph - N/A   Clear
7:35 AM 62.6 °F 32.0 °F 32% 30.40 in 10.0 mi ESE 12.7 mph - N/A   Clear
7:55 AM 64.4 °F 30.2 °F 28% 30.40 in 10.0 mi SE 12.7 mph - N/A   Clear
8:15 AM 64.4 °F 30.2 °F 28% 30.40 in 10.0 mi SE 10.4 mph - N/A   Clear
8:35 AM 64.4 °F 30.2 °F 28% 30.41 in 10.0 mi SE 11.5 mph - N/A   Clear
8:55 AM 66.2 °F 30.2 °F 26% 30.41 in 10.0 mi ESE 10.4 mph - N/A   Clear
9:15 AM 68.0 °F 30.2 °F 24% 30.42 in 10.0 mi SE 11.5 mph - N/A   Clear
9:35 AM 68.0 °F 30.2 °F 24% 30.42 in 10.0 mi SE 9.2 mph - N/A   Clear
9:55 AM 68.0 °F 28.4 °F 23% 30.42 in 10.0 mi SE 11.5 mph - N/A   Clear
10:15 AM 69.8 °F 28.4 °F 21% 30.42 in 10.0 mi SE 10.4 mph - N/A   Clear
10:35 AM 69.8 °F 28.4 °F 21% 30.42 in 10.0 mi SE 10.4 mph - N/A   Clear
10:55 AM 69.8 °F 28.4 °F 21% 30.42 in 10.0 mi SE 9.2 mph - N/A   Clear
11:15 AM 69.8 °F 28.4 °F 21% 30.42 in 10.0 mi SE 11.5 mph - N/A   Clear
11:35 AM 71.6 °F 30.2 °F 22% 30.42 in 10.0 mi SE 11.5 mph - N/A   Clear
11:55 AM 71.6 °F 30.2 °F 22% 30.42 in 10.0 mi SE 11.5 mph - N/A   Clear
12:15 PM 71.6 °F 30.2 °F 22% 30.42 in 10.0 mi ESE 11.5 mph - N/A   Clear
12:35 PM 73.4 °F 30.2 °F 20% 30.41 in 10.0 mi SE 10.4 mph - N/A   Clear
12:55 PM 73.4 °F 30.2 °F 20% 30.41 in 10.0 mi SE 10.4 mph - N/A   Clear
1:15 PM 75.2 °F 28.4 °F 18% 30.40 in 10.0 mi SE 10.4 mph - N/A   Clear
1:35 PM 77.0 °F 26.6 °F 16% 30.40 in 10.0 mi SE 8.1 mph - N/A   Clear
1:55 PM 78.8 °F 23.0 °F 13% 30.40 in 10.0 mi SE 8.1 mph - N/A   Clear
2:15 PM 80.6 °F 19.4 °F 10% 30.39 in 10.0 mi SSE 9.2 mph 17.3 mph N/A   Clear
2:35 PM 80.6 °F 19.4 °F 10% 30.39 in 10.0 mi SSE 10.4 mph 19.6 mph N/A   Clear
2:55 PM 80.6 °F 19.4 °F 10% 30.38 in 10.0 mi SE 13.8 mph 19.6 mph N/A   Clear
3:15 PM 80.6 °F 17.6 °F 10% 30.38 in 10.0 mi SE 16.1 mph - N/A   Clear
3:35 PM 80.6 °F 15.8 °F 9% 30.37 in 10.0 mi SE 15.0 mph 18.4 mph N/A   Clear
3:55 PM 80.6 °F 14.0 °F 8% 30.36 in 10.0 mi SSE 15.0 mph 21.9 mph N/A   Clear
4:15 PM 82.4 °F 10.4 °F 7% 30.36 in 10.0 mi SE 17.3 mph 25.3 mph N/A   Clear
4:35 PM 82.4 °F 10.4 °F 7% 30.36 in 10.0 mi ESE 17.3 mph 21.9 mph N/A   Clear
4:55 PM 82.4 °F 10.4 °F 7% 30.36 in 10.0 mi SE 15.0 mph 21.9 mph N/A   Clear
5:15 PM 80.6 °F 12.2 °F 8% 30.36 in 10.0 mi SE 15.0 mph 19.6 mph N/A   Clear
5:35 PM 82.4 °F 14.0 °F 8% 30.36 in 10.0 mi SE 12.7 mph 17.3 mph N/A   Clear
5:55 PM 82.4 °F 12.2 °F 7% 30.35 in 10.0 mi ESE 13.8 mph 21.9 mph N/A   Clear
6:15 PM 82.4 °F 10.4 °F 7% 30.34 in 10.0 mi SE 19.6 mph 24.2 mph N/A   Clear
6:35 PM 80.6 °F 10.4 °F 7% 30.34 in 10.0 mi SE 15.0 mph 21.9 mph N/A   Clear
6:55 PM 80.6 °F 10.4 °F 7% 30.34 in 10.0 mi SE 17.3 mph - N/A   Clear
7:15 PM 80.6 °F 12.2 °F 8% 30.34 in 10.0 mi SSE 12.7 mph - N/A   Clear
7:35 PM 78.8 °F 12.2 °F 8% 30.34 in 10.0 mi SSE 10.4 mph - N/A   Clear
7:55 PM 78.8 °F 12.2 °F 8% 30.34 in 10.0 mi SSE 10.4 mph - N/A   Clear
8:15 PM 77.0 °F 12.2 °F 9% 30.34 in 10.0 mi SE 8.1 mph - N/A   Clear
8:35 PM 77.0 °F 12.2 °F 9% 30.34 in 10.0 mi SSE 5.8 mph - N/A   Clear
8:55 PM 77.0 °F 12.2 °F 9% 30.35 in 10.0 mi SSE 5.8 mph - N/A   Clear
9:15 PM 77.0 °F 12.2 °F 9% 30.36 in 10.0 mi SSE 10.4 mph - N/A   Clear
9:35 PM 77.0 °F 12.2 °F 9% 30.36 in 10.0 mi SSE 8.1 mph - N/A   Clear
9:55 PM 77.0 °F 12.2 °F 9% 30.36 in 10.0 mi ESE 4.6 mph - N/A   Clear
10:15 PM 77.0 °F 12.2 °F 9% 30.36 in 10.0 mi SE 6.9 mph - N/A   Clear
10:35 PM 77.0 °F 14.0 °F 9% 30.36 in 10.0 mi SE 6.9 mph - N/A   Clear
10:55 PM 77.0 °F 14.0 °F 9% 30.36 in 10.0 mi SE 8.1 mph - N/A   Clear
11:15 PM 77.0 °F 14.0 °F 9% 30.36 in 10.0 mi SE 6.9 mph - N/A   Clear
11:35 PM 77.0 °F 14.0 °F 9% 30.36 in 10.0 mi SE 8.1 mph - N/A   Clear
11:55 PM 73.4 °F 14.0 °F 10% 30.36 in 10.0 mi SE 10.4 mph - N/A   Clear